FW5684 Weather Reports


time (UTC)temp
F
wind
direction
speed
knots
gust
knots
rain 1hr
in
rain 24hr
in
rain mn
in
humidity
%
barometer
mb
20260505124549 67 178 3.5 10.4 0.00 0.00 0.00 62 1007.7
20260505123045 64 136 3.5 8.7 0.00 0.00 0.00 66 1007.9
20260505121542 63 151 4.3 8.7 0.00 0.00 0.00 66 1008.0
20260505120101 63 168 4.3 9.6 0.00 0.00 0.00 66 1008.1
20260505114541 62 159 5.2 8.7 0.00 0.00 0.00 67 1007.7
20260505113047 61 117 2.6 8.7 0.00 0.00 0.00 68 1007.7
20260505111544 61 146 2.6 7.0 0.00 0.00 0.00 69 1007.6
20260505101551 61 158 2.6 7.0 0.00 0.00 0.00 67 1007.2
20260505100045 61 171 4.3 10.4 0.00 0.00 0.00 67 1007.1
20260505094542 61 151 2.6 6.1 0.00 0.00 0.00 67 1006.7
20260505093043 61 154 1.7 7.8 0.00 0.00 0.00 66 1006.7
20260505091540 61 154 4.3 12.2 0.00 0.00 0.00 66 1006.5
20260505090051 61 143 4.3 9.6 0.00 0.00 0.00 65 1006.4
20260505084545 62 153 4.3 8.7 0.00 0.00 0.00 64 1006.6
20260505083048 62 165 4.3 8.7 0.00 0.00 0.00 64 1006.6
20260505081544 62 140 4.3 10.4 0.00 0.00 0.00 62 1006.5
20260505080042 62 156 3.5 8.7 0.00 0.00 0.00 62 1006.4
20260505074549 62 157 5.2 9.6 0.00 0.00 0.00 63 1006.3
20260505073058 62 149 2.6 6.1 0.00 0.00 0.00 61 1006.2
20260505071552 63 168 3.5 7.0 0.00 0.00 0.00 61 1006.2